Showing default

ALSAT 1N, 41789

Orbit data source: Space-Track

ALSAT 1N, 41789 is an Algerian payload satellite in SSO that was launched on Mon, 26 Sep 2016 UTC via a PSLV launch vehicle from the Sirharikota (SRI). Payload-class satellites include a variety of spacecraft equipped with specific instruments for various scientific and technological missions. These include communications satellites like Starlink; space stations such as the ISS; scientific satellites like the Hubble; Earth observation satellites from companies like Planet Labs, Umbra, and HawkEye 360; GPS; miniature CubeSats for education and research; and military/defense satellites.

Loading next visibility...
Identifier
41789, 2016-059G
Orbit
SSO
Last TLE update
7 hours ago
Origin
Manufacturer
ASAL/SSC
Mission
Non-operational Civil Imaging
Bus & Motor
CUBESAT 3U, Unknown motor
Mass
7 kg wet, 7 kg dry
Launch date (UTC)
2016-09-26 (9 years ago)
Launch vehicle
PSLV
Launch site
Sirharikota (SRI)
Object type
Payload
Rocket body
Debris
Shape & HBR
Box, 0.3 m
Radar Cross Section
0.075 m², Small (<0.1 m²)

Expand to show TLE details & history

TLE from 7 hours ago
0 ALSAT 1N
1 41789U 16059G   25128.93822820  .00001385  00000-0  24671-3 0  9992
2 41789  97.8064 145.5440 0027417  42.6868 317.6461 14.68299533460663
Epoch: 2025-05-08T22:31Z
Definitive object data (Epoch: 2025-05-08T22:31:02.916Z)
Latitude
-0.00004°
Longitude
-59.21969°
Altitude
655.258 km
Speed
7.537 km/s
True Right ascension
09h 42m 10s
True Declination
0° 00' 00"
Sunlit
Object was in daylight at TLE epoch
Visualization TLE readout
Latitude
64.00159°
Longitude
137.29698°
Altitude
671.902 km
Speed
7.53 km/s
Apparent Right ascension
00h 36m 31s
Apparent Declination
16° 45' 17"
Sunlit
Object is in daylight
Visualization observer readout
Local Sidereal Time
13:43:26
Azimuth
18.8° NNE
Elevation
-31.223°
Doppler factor
1
Orbital elements
Apogee altitude
682.86 km
Perigee altitude
644.248 km
Semi-major axis
7,041.691 km
Eccentricity
0.0027417
Inclination
97.8064°
RAAN
145.544°
Arg. of periapsis
42.6868°
True anomaly
317.4339°
Mean anomaly
317.6461°
Eccentric anomaly
317.54005°
Mean motion
3.67306 °/min
BSTAR
0.00024671
Orbital period
98.01 mins
Loading maneuver chart data...
Loading SW <> Apogee altitude chart data...
Loading historical data...
Loading historical data...
Loading historical data...
Loading historical data...
Loading historical data...
Loading historical data...
Loading historical data...

ALSAT 1N Visibility forecast

Observer location: undefined°, undefined°

Span
Click to sort rows by Start time (UTC) header in descending order
Start Az.
Max El. time (UTC)
Max El. Az.
Max El.
End time (UTC)
End Az.
9 mins2025-05-09 13:47:44.637Z16.429° NNE2025-05-09 13:51:44.637Z54.495° ENE42.416°2025-05-09 13:56:44.637Z186.976° SSW
6 mins2025-05-10 00:49:44.637Z146.52° SSE2025-05-10 00:52:44.637Z44.069° NE39.709°2025-05-10 00:55:44.637Z357.78° N
|